Weather History for Lambertville, MI

Change the Weather History Date:

Tuesday, April 8, 2014

  Actual Average (KTOL) Record (KTOL)
Temperature  
Mean Temperature 50 °F 47 °F  
Max Temperature 60 °F 57 °F 79 °F (2001)
Min Temperature 41 °F 36 °F 10 °F (1982)
Degree Days  
Heating Degree Days 14 19  
Month to date heating degree days 159  
Since 1 July heating degree days 5585  
Cooling Degree Days 0 0  
Month to date cooling degree days 0  
Year to date cooling degree days 0  
Moisture  
Dew Point 36 °F    
Average Humidity 63    
Maximum Humidity 93    
Minimum Humidity 34    
Precipitation  
Precipitation 0.00 in 0.11 in 0.99 in (1991)
Month to date precipitation 0.82  
Year to date precipitation 7.42  
Snow  
Snow 0.00 in 0.00 in - ()
Month to date snowfall 0.6  
Since 1 July snowfall 36.8  
Snow Depth -    
Sea Level Pressure  
Sea Level Pressure 29.64 in    
Wind  
Wind Speed 6 mph (WNW)    
Max Wind Speed 14 mph    
Max Gust Speed 17 mph    
Visibility 9 miles    
Events Rain    
T = Trace of Precipitation, MM = Missing Value Source: NWS Daily Summary

Daily Weather History Graph

Daily Weather History Graph

Search for Another Location

Airport:

Trip Planner

Search our weather history database for the weather conditions in past years. The results will help you decide how hot, cold, wet, or windy it might be!

Date:

Astronomy

Apr. 08, 2014 Rise Set
Actual Time 7:05 AM EDT 8:07 PM EDT
Civil Twilight 6:37 AM EDT 8:36 PM EDT
Nautical Twilight 6:03 AM EDT 9:10 PM EDT
Astronomical Twilight 5:28 AM EDT 9:45 PM EDT
Moon 1:55 PM EDT (4/8) 3:23 AM EDT (4/8)
Length of Visible Light 13h 58m
Length of Day
13h 01m
Waxing Gibbous, 62% of the Moon is Illuminated
Apr 8
Waxing Gibbous
Apr 15
Full
Apr 22
Last Quarter
Apr 29
New
May 6
First Quarter

Hourly Weather History & Observations

Time (EDT) Temp. Windchill Dew Point Humidity Pressure Visibility Wind Dir Wind Speed Gust Speed Precip Events Conditions
12:15 AM 42.8 °F 38.6 °F 41.0 °F 93% 29.46 in 4.0 mi NNW 6.9 mph - N/A Rain Light Rain
12:35 AM 42.8 °F 38.6 °F 41.0 °F 93% 29.46 in 5.0 mi NNW 6.9 mph - N/A Rain Rain
12:55 AM 42.8 °F 39.3 °F 41.0 °F 93% 29.47 in 5.0 mi NNW 5.8 mph - N/A Rain Light Rain
1:15 AM 42.8 °F 38.0 °F 41.0 °F 93% 29.48 in 5.0 mi NW 8.1 mph - N/A Rain Light Rain
1:35 AM 42.8 °F 37.5 °F 41.0 °F 93% 29.48 in 3.0 mi NW 9.2 mph - N/A   Overcast
1:55 AM 42.8 °F 38.0 °F 39.2 °F 87% 29.48 in 3.0 mi NW 8.1 mph - N/A   Overcast
2:15 AM 42.8 °F 38.0 °F 39.2 °F 87% 29.48 in 2.5 mi NW 8.1 mph - N/A   Overcast
2:35 AM 42.8 °F 37.0 °F 39.2 °F 87% 29.48 in 4.0 mi NW 10.4 mph - N/A Rain Light Rain
2:55 AM 42.8 °F 39.3 °F 39.2 °F 87% 29.49 in 3.0 mi NW 5.8 mph - N/A Rain Light Rain
3:15 AM 42.8 °F 40.1 °F 39.2 °F 87% 29.49 in 4.0 mi NW 4.6 mph - N/A Rain Light Rain
3:35 AM 42.8 °F 40.1 °F 39.2 °F 87% 29.50 in 4.0 mi WNW 4.6 mph - N/A Rain Light Rain
3:55 AM 42.8 °F 39.3 °F 39.2 °F 87% 29.50 in 4.0 mi WNW 5.8 mph - N/A Rain Light Rain
4:15 AM 41.0 °F 38.0 °F 39.2 °F 93% 29.51 in 4.0 mi WNW 4.6 mph - N/A Rain Light Rain
4:35 AM 41.0 °F 38.0 °F 37.4 °F 87% 29.52 in 5.0 mi WNW 4.6 mph - N/A   Overcast
4:55 AM 41.0 °F 37.1 °F 37.4 °F 87% 29.52 in 5.0 mi WNW 5.8 mph - N/A   Mostly Cloudy
5:15 AM 41.0 °F 35.8 °F 37.4 °F 87% 29.53 in 7.0 mi WNW 8.1 mph - N/A   Mostly Cloudy
5:35 AM 41.0 °F 36.4 °F 35.6 °F 81% 29.54 in 7.0 mi West 6.9 mph - N/A   Overcast
5:55 AM 41.0 °F 36.4 °F 35.6 °F 81% 29.55 in 10.0 mi West 6.9 mph - N/A   Overcast
6:15 AM 41.0 °F 36.4 °F 35.6 °F 81% 29.56 in 10.0 mi West 6.9 mph - N/A   Overcast
6:35 AM 41.0 °F 38.0 °F 35.6 °F 81% 29.56 in 10.0 mi West 4.6 mph - N/A   Overcast
6:55 AM 41.0 °F 36.4 °F 35.6 °F 81% 29.57 in 10.0 mi West 6.9 mph - N/A   Overcast
7:15 AM 41.0 °F 36.4 °F 33.8 °F 76% 29.58 in 10.0 mi West 6.9 mph - N/A   Overcast
7:35 AM 41.0 °F 36.4 °F 33.8 °F 76% 29.59 in 10.0 mi West 6.9 mph - N/A   Overcast
7:55 AM 41.0 °F 36.4 °F 33.8 °F 76% 29.60 in 10.0 mi West 6.9 mph - N/A   Overcast
8:15 AM 42.8 °F 37.5 °F 35.6 °F 76% 29.61 in 10.0 mi West 9.2 mph - N/A   Mostly Cloudy
8:35 AM 42.8 °F 38.0 °F 35.6 °F 76% 29.62 in 10.0 mi West 8.1 mph - N/A   Overcast
8:55 AM 42.8 °F 38.6 °F 35.6 °F 76% 29.62 in 10.0 mi West 6.9 mph - N/A   Mostly Cloudy
9:15 AM 44.6 °F 40.7 °F 37.4 °F 76% 29.63 in 10.0 mi West 6.9 mph - N/A   Scattered Clouds
9:35 AM 44.6 °F 40.2 °F 37.4 °F 76% 29.63 in 10.0 mi WNW 8.1 mph - N/A   Clear
9:55 AM 46.4 °F 41.9 °F 37.4 °F 71% 29.64 in 10.0 mi West 9.2 mph - N/A   Clear
10:15 AM 46.4 °F 41.9 °F 35.6 °F 66% 29.65 in 10.0 mi West 9.2 mph - N/A   Clear
10:35 AM 48.2 °F - 35.6 °F 62% 29.65 in 10.0 mi WNW 6.9 mph - N/A   Clear
10:55 AM 50.0 °F - 35.6 °F 58% 29.66 in 10.0 mi WNW 6.9 mph - N/A   Scattered Clouds
11:15 AM 51.8 °F - 33.8 °F 50% 29.67 in 10.0 mi NW 5.8 mph - N/A   Clear
11:35 AM 51.8 °F - 35.6 °F 54% 29.67 in 10.0 mi NW 8.1 mph - N/A   Clear
11:55 AM 51.8 °F - 32.0 °F 47% 29.68 in 10.0 mi NW 6.9 mph - N/A   Clear
12:15 PM 53.6 °F - 33.8 °F 47% 29.68 in 10.0 mi NW 8.1 mph - N/A   Scattered Clouds
12:35 PM 53.6 °F - 33.8 °F 47% 29.68 in 10.0 mi WNW 8.1 mph - N/A   Mostly Cloudy
12:55 PM 51.8 °F - 33.8 °F 50% 29.68 in 10.0 mi NW 5.8 mph - N/A   Overcast
1:15 PM 55.4 °F - 33.8 °F 44% 29.68 in 10.0 mi WNW 4.6 mph - N/A   Scattered Clouds
1:35 PM 55.4 °F - 33.8 °F 44% 29.68 in 10.0 mi WNW 5.8 mph - N/A   Scattered Clouds
1:55 PM 55.4 °F - 33.8 °F 44% 29.68 in 10.0 mi WNW 4.6 mph - N/A   Clear
2:15 PM 57.2 °F - 32.0 °F 38% 29.68 in 10.0 mi WNW 6.9 mph - N/A   Scattered Clouds
2:35 PM 59.0 °F - 33.8 °F 39% 29.69 in 10.0 mi NW 6.9 mph - N/A   Scattered Clouds
2:55 PM 59.0 °F - 32.0 °F 36% 29.68 in 10.0 mi NW 5.8 mph - N/A   Scattered Clouds
3:15 PM 59.0 °F - 32.0 °F 36% 29.68 in 10.0 mi WNW 8.1 mph - N/A   Scattered Clouds
3:35 PM 59.0 °F - 32.0 °F 36% 29.68 in 10.0 mi Calm Calm - N/A   Scattered Clouds
3:55 PM 60.8 °F - 32.0 °F 34% 29.68 in 10.0 mi WNW 6.9 mph - N/A   Scattered Clouds
4:15 PM 59.0 °F - 32.0 °F 36% 29.68 in 10.0 mi West 6.9 mph - N/A   Mostly Cloudy
4:35 PM 59.0 °F - 32.0 °F 36% 29.68 in 10.0 mi WNW 6.9 mph - N/A   Mostly Cloudy
4:55 PM 59.0 °F - 32.0 °F 36% 29.68 in 10.0 mi WNW 5.8 mph - N/A   Mostly Cloudy
5:15 PM 59.0 °F - 32.0 °F 36% 29.68 in 10.0 mi WNW 9.2 mph - N/A   Overcast
5:35 PM 59.0 °F - 32.0 °F 36% 29.69 in 10.0 mi WNW 8.1 mph - N/A   Overcast
5:55 PM 59.0 °F - 35.6 °F 42% 29.69 in 10.0 mi West 6.9 mph - N/A   Overcast
6:15 PM 59.0 °F - 35.6 °F 42% 29.70 in 10.0 mi West 13.8 mph 17.3 mph N/A   Overcast
6:35 PM 55.4 °F - 35.6 °F 47% 29.70 in 10.0 mi West 6.9 mph - N/A   Scattered Clouds
6:55 PM 55.4 °F - 35.6 °F 47% 29.71 in 10.0 mi West 6.9 mph - N/A   Mostly Cloudy
7:15 PM 57.2 °F - 35.6 °F 44% 29.71 in 10.0 mi West 8.1 mph - N/A   Overcast
7:35 PM 55.4 °F - 35.6 °F 47% 29.72 in 10.0 mi West 5.8 mph - N/A   Mostly Cloudy
7:55 PM 53.6 °F - 37.4 °F 54% 29.73 in 10.0 mi West 4.6 mph - N/A   Scattered Clouds
8:15 PM 53.6 °F - 37.4 °F 54% 29.73 in 10.0 mi West 3.5 mph - N/A   Mostly Cloudy
8:35 PM 53.6 °F - 37.4 °F 54% 29.74 in 10.0 mi West 3.5 mph - N/A   Mostly Cloudy
8:55 PM 51.8 °F - 37.4 °F 58% 29.75 in 10.0 mi Calm Calm - N/A   Scattered Clouds
9:15 PM 51.8 °F - 37.4 °F 58% 29.76 in 10.0 mi Calm Calm - N/A   Clear
9:35 PM 50.0 °F - 37.4 °F 62% 29.77 in 10.0 mi Calm Calm - N/A   Mostly Cloudy
9:55 PM 50.0 °F - 37.4 °F 62% 29.78 in 10.0 mi Calm Calm - N/A   Mostly Cloudy
10:15 PM 50.0 °F - 37.4 °F 62% 29.78 in 10.0 mi West 3.5 mph - N/A   Mostly Cloudy
10:35 PM 50.0 °F - 35.6 °F 58% 29.78 in 10.0 mi WNW 3.5 mph - N/A   Overcast
10:55 PM 50.0 °F - 35.6 °F 58% 29.78 in 10.0 mi NW 5.8 mph - N/A   Mostly Cloudy
11:15 PM 50.0 °F - 35.6 °F 58% 29.79 in 10.0 mi Calm Calm - N/A   Scattered Clouds
11:35 PM 48.2 °F - 35.6 °F 62% 29.79 in 10.0 mi Calm Calm - N/A   Scattered Clouds
11:55 PM 46.4 °F - 35.6 °F 66% 29.80 in 10.0 mi Calm Calm - N/A   Mostly Cloudy